Regional Weather Roundup
Issued by NWS

Home | Current Version | Previous Version | Graphics & Text | Print | Product List | Glossary On
Versions: 1 2 3 4 5 6 7 8 9 10 11 12 13 14 15 16 17 18 19 20 21 22 23 24 25 26 27 28 29 30 31 32 33 34 35 36 37 38 39 40 41 42 43 44 45 46 47 48 49 50
000
ASUS45 KPSR 301200
RWRAZ

PRELIMINARY ARIZONA REGIONAL HOURLY WEATHER ROUNDUP
NATIONAL WEATHER SERVICE PHOENIX AZ
500 AM MST SAT AUG 30 2014

NOTE: FAIR INDICATES FEW OR NO CLOUDS BELOW 12,000 FEET WITH NO
SIGNIFICANT WEATHER AND/OR OBSTRUCTIONS TO VISIBILITY.

AZZ001>003-036-301300-
NORTHWEST ARIZONA

CITY           SKY/WX    TMP DP  RH WIND       PRES   REMARKS
KINGMAN        CLEAR     76  34  21 S7        29.96R
6HR MIN TEMP:  70; 6HR MAX TEMP:  82;

$$

AZZ004>008-015-016-018-301300-
NORTH CENTRAL ARIZONA

CITY           SKY/WX    TMP DP  RH WIND       PRES   REMARKS
GRAND CANYON     N/A    N/A N/A N/A MISG        N/A
WILLIAMS       CLEAR     50  41  71 SE10      30.28F
PRESCOTT       CLEAR     60  42  51 CALM      30.10S
6HR MIN TEMP:  59; 6HR MAX TEMP:  68;

FLAGSTAFF      PTCLDY    45  39  79 CALM      30.26S
6HR MIN TEMP:  45; 6HR MAX TEMP:  51;

PAYSON         CLEAR     63  36  36 CALM      30.13S
PAGE           PTCLDY    69  34  27 CALM      30.03R
6HR MIN TEMP:  68; 6HR MAX TEMP:  79;

$$

AZZ009>014-017-301300-
NORTHEAST ARIZONA

CITY           SKY/WX    TMP DP  RH WIND       PRES   REMARKS
WINSLOW        NOT AVBL
SAINT JOHNS    PTCLDY    58  44  60 S3        30.17R
6HR MIN TEMP:  57; 6HR MAX TEMP:  64;

WINDOW ROCK    MOCLDY    46  34  62 CALM      30.25
6HR MIN TEMP:  43; 6HR MAX TEMP:  56;

$$

AZZ023-301300-
GREATER PHOENIX AREA

CITY           SKY/WX    TMP DP  RH WIND       PRES   REMARKS
PHOENIX        CLEAR     85  47  26 SE8       29.77R
6HR MIN TEMP:  83; 6HR MAX TEMP:  96;

DEER VALLEY    CLEAR     80  47  31 CALM      29.80R
6HR MIN TEMP:  79; 6HR MAX TEMP:  90;

SCOTTSDALE     CLEAR     80  51  36 CALM      29.82R
6HR MIN TEMP:  79; 6HR MAX TEMP:  92;

MESA-GATEWAY   CLEAR     84  43  23 E5        29.82R
$$

AZZ027-028-301300-
SOUTHWEST MARICOPA COUNTY AND PINAL COUNTY

CITY           SKY/WX    TMP DP  RH WIND       PRES   REMARKS
CASA GRANDE    CLEAR     73  41  31 CALM      29.82R
6HR MIN TEMP:  73; 6HR MAX TEMP:  86;

$$

AZZ503-504-507>509-301300-
SOUTHEAST ARIZONA

CITY           SKY/WX    TMP DP  RH WIND       PRES   REMARKS
TUCSON         CLEAR     76  44  32 SE10      29.94R
6HR MIN TEMP:  76; 6HR MAX TEMP:  85;

DAVIS-MONTHAN  CLEAR     73  46  38 SE10      29.92R
6HR MIN TEMP:  73; 6HR MAX TEMP:  82;

NOGALES        CLEAR     60  52  74 S5        30.03R
6HR MIN TEMP:  60; 6HR MAX TEMP:  70;

SIERRA VISTA   CLEAR     67  45  45 CALM      30.09R
6HR MIN TEMP:  65; 6HR MAX TEMP:  74;

SAFFORD        CLEAR     67  48  50 N6        29.96R
6HR MIN TEMP:  66; 6HR MAX TEMP:  79;

$$

AZZ020-021-025-026-031-301300-
SOUTHWEST ARIZONA

CITY           SKY/WX    TMP DP  RH WIND       PRES   REMARKS
YUMA           NOT AVBL
$$

CAZ031-033-041-043-047-048-061-301300-
SOUTHERN CALIFORNIA

CITY           SKY/WX    TMP DP  RH WIND       PRES   REMARKS
DOWNTOWN L.A.  CLEAR     66  62  87 CALM      29.81S
6HR MIN TEMP:  66; 6HR MAX TEMP:  70;

L.A. AIRPORT   PTCLDY    67  64  90 CALM      29.82R
6HR MIN TEMP:  67; 6HR MAX TEMP:  69;

SAN DIEGO      CLOUDY    69  63  81 CALM      29.83S
6HR MIN TEMP:  68; 6HR MAX TEMP:  70;

BURBANK        CLEAR     66  56  70 CALM      29.82S
6HR MIN TEMP:  66; 6HR MAX TEMP:  74;

ONTARIO        CLEAR     66  58  75 CALM      29.82S
6HR MIN TEMP:  66; 6HR MAX TEMP:  75;

RIVERSIDE      CLEAR     67  57  70 CALM      29.82S
6HR MIN TEMP:  67; 6HR MAX TEMP:  74;

PALM SPRINGS   CLEAR     81  50  33 W3        29.72S
6HR MIN TEMP:  81; 6HR MAX TEMP:  97;

EL CENTRO NAS  CLEAR     80  44  27 W3        29.66S
6HR MIN TEMP:  79; 6HR MAX TEMP:  91;

IMPERIAL       CLEAR     83  44  25 CALM      29.66S
6HR MIN TEMP:  81; 6HR MAX TEMP:  90;

BLYTHE         CLEAR     79  42  26 N10       29.70R
6HR MIN TEMP:  78; 6HR MAX TEMP:  89;

$$

NVZ020-UTZ003-301300-
SOUTHERN NEVADA-UTAH

CITY           SKY/WX    TMP DP  RH WIND       PRES   REMARKS
LAS VEGAS      NOT AVBL
SALT LAKE CITY MOCLDY    74  42  31 S12       29.91R
6HR MIN TEMP:  70; 6HR MAX TEMP:  77;

$$

NMZ009-TXZ055-301300-
NEW MEXICO-WEST TEXAS

CITY           SKY/WX    TMP DP  RH WIND       PRES   REMARKS
ALBUQUERQUE    CLEAR     63  43  48 N7        30.16R
6HR MIN TEMP:  62; 6HR MAX TEMP:  72;

EL PASO        MOCLDY    73  51  46 N3        30.05R
6HR MIN TEMP:  72; 6HR MAX TEMP:  81;

$$


........................KEY........................
SKY/WX - SKY CONDITION/WEATHER
TMP    - TEMPERATURE IN FAHRENHEIT
DP     - DEW POINT IN FAHRENHEIT
RH     - RELATIVE HUMIDITY IN PERCENT
WIND   - DIRECTION AND SPEED IN MILES PER HOUR (MPH)
VRB    - VARIABLE WIND DIRECTION
PRES   - MEAN SEA LEVEL PRESSURE IN INCHES OF MERCURY
         F - FALLING PRESSURE   R - RISING PRESSURE
         S - STEADY PRESSURE
VSB    - VISIBILITY IN MILES
HX     - HEAT INDEX IN FAHRENHEIT
WCI    - WIND CHILL INDEX IN FAHRENHEIT
TC     - TEMPERATURE IN CELSIUS WHICH IS ALSO KNOWN AS
         TEMPERATURE IN CENTIGRADE
AFB    - AIR FORCE BASE
         LUKE AFB IS LUKE AIR FORCE BASE
         DAVIS-MONTHAN IS DAVIS-MONTHAN AIR FORCE BASE
NAS    - NAVAL AIR STATION
         EL CENTRO NAS IS EL CENTRO NAVAL AIR STATION
N/A    - NOT AVAILABLE


USA.gov is the U.S. government's official web portal to all federal, state and local government web resources and services.